Retour au catalogue

ESEO

ActifRadio amateurSSO
NORAD 43792·PAYLOAD·🇪🇺 EU

Lancé Dec 3, 2018 depuis Vandenberg Space Force Base

Loading…

Prochains Passages (prochaines 24 heures)

TLE

FraisSource: Space-Track

Époque: Sep 14, 2026, 09:03 UTC

1 43792U 18099AL  26257.37731891  .00001649  00000-0  12187-3 0  9995
2 43792  97.3907 290.9273 0012663  34.8285 325.3768 15.04465863425212

Suivez ESEO en temps réel avec AllMySat

Download on the App Store